Home   Weather   St. Pölten   Past weeks
Flag for Austria

Past Weather in St. Pölten, Lower Austria, Austria — Yesterday and Last 2 Weeks

Now
40 °F

Quite cool.


Feels Like: 38 °F
Forecast: 54 / 29 °F
Wind: 3 mph from Northwest

Location: Wien / Hohe Warte

Current Time: Mar 20, 2019 at 1:34:28 am

Latest Report: Mar 19, 2019 at 11:00 pm


Visibility: N/A

Pressure: 30.43 "Hg

Humidity: 55%

Dew Point: 25 °F

Location of St. PöltenLocation

Past Weather in St. Pölten — Graph

°F

St. Pölten Temperature Yesterday

Maximum temperature yesterday: 48 °F (at 3:00 pm)
Minimum temperature yesterday: 39 °F (at 4:00 am)
Average temperature yesterday: 43 °F

High & Low Weather Summary for the Past Weeks

 TemperatureHumidityPressure
High70 °F (Mar 7, 2:00 pm)98% (Mar 17, 8:00 am)30.43 "Hg (Mar 17, 8:00 am)
Low36 °F (Mar 12, 9:00 pm)36% (Mar 7, 2:00 pm)29.55 "Hg (Mar 7, 2:00 pm)
Average48 °F62%29.91 "Hg
* Reported Mar 4 11:00 pm — Mar 19 11:00 pm, St. Pölten. Weather by CustomWeather, © 2019

Note: Actual official high and low records may vary slightly from our data, if they occured in-between our weather recording intervals... More about our weather records

Advertising

St. Pölten Weather History for the Previous 24 Hours

Scroll right to see more
 ConditionsComfort  
Time TempWeatherWind HumidityBarometerVisibility
11:00 pm
Tue, Mar 19
40 °FQuite cool.3 mph55%30.43 "HgN/A
10:00 pm42 °FPassing clouds.3 mph53%30.42 "Hg19 mi
8:00 pm45 °FOvercast.3 mph47%30.39 "Hg19 mi
7:00 pm46 °FOvercast.2 mph47%30.37 "Hg19 mi
5:00 pm46 °FScattered clouds.3 mph45%30.32 "Hg31 mi
4:00 pm48 °FPartly sunny.5 mph46%30.29 "Hg31 mi
3:00 pm48 °FOvercast.5 mph40%30.29 "Hg28 mi
2:00 pm48 °FOvercast.3 mph46%30.29 "Hg28 mi
1:00 pm47 °FOvercast.3 mph52%30.30 "Hg25 mi
12:00 pm48 °FOvercast.3 mph54%30.30 "Hg25 mi
11:00 am47 °FOvercast.3 mph56%30.30 "Hg25 mi
10:00 am44 °FOvercast.3 mph63%30.30 "Hg19 mi
9:00 am41 °FOvercast.6 mph66%30.29 "Hg31 mi
8:00 am41 °FPartly sunny.5 mph67%30.28 "Hg31 mi
7:00 am40 °FOvercast.5 mph68%30.26 "Hg31 mi
6:00 am40 °FChilly.6 mph68%30.25 "HgN/A
5:00 am40 °FChilly.6 mph68%30.24 "HgN/A
4:00 am39 °FChilly.7 mph73%30.23 "HgN/A
2:00 am41 °FQuite cool.6 mph68%30.21 "HgN/A
1:00 am41 °FPassing clouds.7 mph68%30.21 "Hg31 mi
Weather by CustomWeather, © 2019

See weather overview